TimeMDT,TemperatureF,Dew PointF,Humidity,Sea Level PressureIn,VisibilityMPH,Wind Direction,Wind SpeedMPH,Gust SpeedMPH,PrecipitationIn,Events,Conditions,WindDirDegrees,DateUTC
12:53 AM,39.9,24.1,53,29.89,10.0,WSW,10.4,-,N/A,,Clear,250,2012-11-02 06:53:00
1:53 AM,37.9,24.1,57,29.90,10.0,SW,6.9,-,N/A,,Clear,230,2012-11-02 07:53:00
2:53 AM,41.0,25.0,53,29.91,10.0,WSW,3.5,-,N/A,,Clear,250,2012-11-02 08:53:00
3:53 AM,41.0,25.0,53,29.92,10.0,West,11.5,-,N/A,,Clear,280,2012-11-02 09:53:00
4:53 AM,37.9,25.0,60,29.95,10.0,WSW,4.6,-,N/A,,Clear,250,2012-11-02 10:53:00
5:53 AM,37.0,26.1,65,29.98,10.0,SW,5.8,-,N/A,,Clear,220,2012-11-02 11:53:00
6:53 AM,36.0,26.1,67,30.01,10.0,WSW,6.9,-,N/A,,Clear,250,2012-11-02 12:53:00
7:53 AM,36.0,26.1,67,30.04,10.0,SW,5.8,-,N/A,,Mostly Cloudy,230,2012-11-02 13:53:00
8:53 AM,39.9,27.0,60,30.04,10.0,WSW,9.2,-,N/A,,Clear,250,2012-11-02 14:53:00
9:53 AM,44.1,27.0,51,30.04,10.0,WSW,13.8,-,N/A,,Clear,250,2012-11-02 15:53:00
10:53 AM,46.9,25.0,42,30.04,10.0,West,12.7,18.4,N/A,,Clear,270,2012-11-02 16:53:00
11:53 AM,48.9,19.9,32,30.04,10.0,West,18.4,24.2,N/A,,Clear,260,2012-11-02 17:53:00
12:53 PM,51.1,19.0,28,30.02,10.0,West,16.1,24.2,N/A,,Clear,260,2012-11-02 18:53:00
1:53 PM,52.0,16.0,24,30.00,10.0,West,16.1,26.5,N/A,,Clear,280,2012-11-02 19:53:00
2:53 PM,52.0,14.0,22,29.99,10.0,WSW,17.3,-,N/A,,Clear,250,2012-11-02 20:53:00
3:53 PM,52.0,15.1,23,29.98,10.0,West,16.1,-,N/A,,Clear,280,2012-11-02 21:53:00
4:53 PM,51.1,14.0,23,30.01,10.0,West,13.8,21.9,N/A,,Clear,270,2012-11-02 22:53:00
5:53 PM,46.9,12.0,24,30.05,10.0,West,10.4,-,N/A,,Clear,280,2012-11-02 23:53:00
6:53 PM,45.0,14.0,29,30.07,10.0,West,8.1,-,N/A,,Clear,280,2012-11-03 00:53:00
7:53 PM,36.0,15.1,43,30.14,10.0,NW,10.4,-,N/A,,Clear,310,2012-11-03 01:53:00
8:53 PM,35.1,15.1,44,30.12,10.0,Calm,Calm,-,N/A,,Clear,0,2012-11-03 02:53:00
9:53 PM,30.9,14.0,50,30.14,10.0,Calm,Calm,-,N/A,,Clear,0,2012-11-03 03:53:00
10:53 PM,28.9,15.1,56,30.15,10.0,Calm,Calm,-,N/A,,Clear,0,2012-11-03 04:53:00
11:53 PM,30.0,16.0,56,30.13,10.0,WNW,3.5,-,N/A,,Clear,290,2012-11-03 05:53:00